When you browse on this site, cookies collect data to enhance your experience and personalize the content and advertising you see.
Visit our Privacy Policy to learn more. By continuing to use the site, you agree to this use of cookies and data.
EN

Hourly Weather Gogolewo

Today, 22 September, Tuesday

Time Temperature Precipitation Wind Pressure Humidity
00:00 +14°C° 0 mm 2 mps 753 mmHg 69%
01:00 +13°C° 0 mm 3 mps 752 mmHg 72%
02:00 +13°C° 0 mm 2 mps 752 mmHg 73%
03:00 +13°C° 0 mm 2 mps 752 mmHg 74%
04:00 +13°C° 0 mm 2 mps 752 mmHg 76%
05:00 +13°C° 0 mm 2 mps 751 mmHg 75%
06:00 +14°C° 0 mm 2 mps 751 mmHg 74%
07:00 +15°C° 0 mm 2 mps 751 mmHg 71%
08:00 +17°C° 0 mm 3 mps 751 mmHg 65%
09:00 +19°C° 0 mm 3 mps 751 mmHg 59%
10:00 +21°C° 0 mm 3 mps 751 mmHg 53%
11:00 +22°C° 0 mm 3 mps 751 mmHg 50%
12:00 +24°C° 0 mm 3 mps 750 mmHg 46%
13:00 +26°C° 0 mm 4 mps 750 mmHg 42%
14:00 +26°C° 0 mm 3 mps 750 mmHg 43%
15:00 +25°C° 0 mm 3 mps 749 mmHg 45%
16:00 +25°C° 0 mm 2 mps 749 mmHg 46%
17:00 +23°C° 0 mm 2 mps 748 mmHg 51%
18:00 +21°C° 0 mm 3 mps 748 mmHg 55%
19:00 +19°C° 0 mm 3 mps 748 mmHg 60%
20:00 +19°C° 0 mm 3 mps 748 mmHg 61%
21:00 +18°C° 0 mm 3 mps 747 mmHg 62%
22:00 +18°C° 0 mm 3 mps 747 mmHg 63%
23:00 +17°C° 0 mm 3 mps 747 mmHg 67%

Tomorrow, 23 September, Wednesday

Time Temperature Precipitation Wind Pressure Humidity
00:00 +17°C° 0 mm 3 mps 747 mmHg 70%
01:00 +16°C° 0 mm 3 mps 747 mmHg 73%
02:00 +16°C° 0 mm 3 mps 746 mmHg 74%
03:00 +16°C° 0 mm 3 mps 746 mmHg 75%
04:00 +16°C° 0 mm 3 mps 746 mmHg 77%
05:00 +16°C° 0 mm 3 mps 746 mmHg 77%
06:00 +16°C° 0 mm 3 mps 746 mmHg 76%
07:00 +17°C° 0 mm 3 mps 746 mmHg 76%
08:00 +19°C° 0 mm 3 mps 746 mmHg 69%
09:00 +21°C° 0 mm 3 mps 746 mmHg 62%
10:00 +24°C° 0 mm 3 mps 746 mmHg 55%
11:00 +25°C° 0 mm 3 mps 746 mmHg 52%
12:00 +25°C° 0 mm 3 mps 746 mmHg 48%
13:00 +26°C° 0 mm 3 mps 746 mmHg 45%
14:00 +26°C° 0 mm 2 mps 745 mmHg 47%
15:00 +25°C° 0 mm 2 mps 745 mmHg 50%
16:00 +25°C° 0 mm 2 mps 745 mmHg 52%
17:00 +23°C° 0.1 mm 2 mps 745 mmHg 56%
18:00 +21°C° 0.1 mm 2 mps 745 mmHg 61%
19:00 +19°C° 0.1 mm 2 mps 745 mmHg 65%
20:00 +19°C° 0.1 mm 2 mps 745 mmHg 67%
21:00 +18°C° 0.1 mm 2 mps 745 mmHg 70%
22:00 +18°C° 0.1 mm 2 mps 745 mmHg 72%
23:00 +18°C° 0 mm 2 mps 744 mmHg 74%

Day after tomorrow, 24 September, Thursday

Time Temperature Precipitation Wind Pressure Humidity
00:00 +17°C° 0 mm 2 mps 744 mmHg 77%
01:00 +17°C° 0 mm 2 mps 744 mmHg 80%
02:00 +17°C° 0 mm 2 mps 744 mmHg 81%
03:00 +16°C° 0 mm 2 mps 744 mmHg 83%
04:00 +16°C° 0 mm 2 mps 744 mmHg 85%
05:00 +16°C° 0 mm 3 mps 744 mmHg 82%
06:00 +16°C° 0 mm 3 mps 744 mmHg 79%
07:00 +17°C° 0 mm 3 mps 744 mmHg 77%
08:00 +19°C° 0 mm 4 mps 744 mmHg 67%
09:00 +20°C° 0 mm 4 mps 744 mmHg 57%
10:00 +22°C° 0 mm 4 mps 744 mmHg 47%
11:00 +23°C° 0 mm 5 mps 744 mmHg 46%
12:00 +25°C° 0 mm 5 mps 744 mmHg 44%
13:00 +25°C° 0 mm 5 mps 744 mmHg 43%
14:00 +25°C° 0 mm 4 mps 744 mmHg 46%
15:00 +25°C° 0 mm 3 mps 744 mmHg 50%
16:00 +24°C° 0 mm 2 mps 744 mmHg 53%
17:00 +21°C° 0.1 mm 2 mps 744 mmHg 60%
18:00 +20°C° 0.1 mm 2 mps 744 mmHg 68%
19:00 +19°C° 0.1 mm 1 mps 744 mmHg 75%
20:00 +18°C° 0.2 mm 1 mps 744 mmHg 78%
21:00 +18°C° 0.2 mm 1 mps 744 mmHg 81%
22:00 +16°C° 0.2 mm 2 mps 744 mmHg 84%
23:00 +16°C° 0 mm 2 mps 744 mmHg 84%

25 September, Friday

Time Temperature Precipitation Wind Pressure Humidity
00:00 +16°C° 0 mm 2 mps 744 mmHg 84%
01:00 +16°C° 0 mm 2 mps 744 mmHg 85%
02:00 +15°C° 0 mm 2 mps 743 mmHg 85%
03:00 +15°C° 0 mm 2 mps 743 mmHg 85%
04:00 +15°C° 0 mm 2 mps 743 mmHg 86%
05:00 +15°C° 0 mm 2 mps 742 mmHg 85%
06:00 +16°C° 0 mm 2 mps 742 mmHg 83%
07:00 +16°C° 0 mm 2 mps 742 mmHg 82%
08:00 +18°C° 0 mm 4 mps 741 mmHg 74%
09:00 +20°C° 0 mm 5 mps 740 mmHg 65%
10:00 +22°C° 0 mm 6 mps 740 mmHg 57%
11:00 +23°C° 0 mm 6 mps 739 mmHg 54%
12:00 +24°C° 0 mm 6 mps 738 mmHg 51%
13:00 +24°C° 0 mm 7 mps 737 mmHg 49%
14:00 +24°C° 0.2 mm 6 mps 737 mmHg 53%
15:00 +23°C° 0.2 mm 6 mps 736 mmHg 57%
16:00 +23°C° 0.2 mm 5 mps 735 mmHg 61%
17:00 +21°C° 1 mm 5 mps 735 mmHg 69%
18:00 +19°C° 1 mm 5 mps 735 mmHg 78%
19:00 +17°C° 1 mm 6 mps 735 mmHg 86%
20:00 +16°C° 0.2 mm 6 mps 735 mmHg 87%
21:00 +16°C° 0.2 mm 6 mps 736 mmHg 87%
22:00 +16°C° 0.2 mm 6 mps 736 mmHg 88%
23:00 +15°C° 0.2 mm 5 mps 737 mmHg 88%

26 September, Saturday

Time Temperature Precipitation Wind Pressure Humidity
00:00 +15°C° 0.2 mm 4 mps 737 mmHg 88%
01:00 +14°C° 0.2 mm 4 mps 738 mmHg 88%
02:00 +14°C° 0 mm 3 mps 738 mmHg 90%
03:00 +14°C° 0 mm 2 mps 738 mmHg 91%
04:00 +14°C° 0 mm 1 mps 739 mmHg 93%
05:00 +14°C° 0 mm 1 mps 739 mmHg 92%
06:00 +14°C° 0 mm 1 mps 739 mmHg 91%
07:00 +14°C° 0 mm 2 mps 739 mmHg 90%
08:00 +13°C° 1.9 mm 3 mps 738 mmHg 91%
09:00 +13°C° 1.9 mm 3 mps 738 mmHg 92%
10:00 +13°C° 1.9 mm 4 mps 738 mmHg 94%
11:00 +13°C° 2.7 mm 5 mps 738 mmHg 94%
12:00 +14°C° 2.7 mm 5 mps 738 mmHg 94%
13:00 +14°C° 2.7 mm 5 mps 738 mmHg 95%
14:00 +15°C° 0.4 mm 5 mps 738 mmHg 93%
15:00 +15°C° 0.4 mm 4 mps 737 mmHg 91%
16:00 +17°C° 0.4 mm 3 mps 737 mmHg 90%
17:00 +17°C° 0.1 mm 3 mps 737 mmHg 90%
18:00 +17°C° 0.1 mm 3 mps 737 mmHg 91%
19:00 +17°C° 0.1 mm 3 mps 737 mmHg 92%
20:00 +17°C° 0 mm 3 mps 738 mmHg 93%
21:00 +16°C° 0 mm 2 mps 738 mmHg 94%
22:00 +16°C° 0 mm 2 mps 738 mmHg 95%
23:00 +16°C° 0 mm 2 mps 738 mmHg 95%

27 September, Sunday

Time Temperature Precipitation Wind Pressure Humidity
00:00 +16°C° 0 mm 2 mps 738 mmHg 94%
01:00 +16°C° 0 mm 1 mps 738 mmHg 94%
02:00 +16°C° 0 mm 2 mps 738 mmHg 94%
03:00 +17°C° 0 mm 3 mps 738 mmHg 94%
04:00 +17°C° 0 mm 4 mps 738 mmHg 95%
05:00 +16°C° 0 mm 5 mps 738 mmHg 90%
06:00 +16°C° 0 mm 5 mps 738 mmHg 85%
07:00 +16°C° 0 mm 5 mps 738 mmHg 81%
08:00 +16°C° 0 mm 5 mps 739 mmHg 80%
09:00 +16°C° 0 mm 6 mps 739 mmHg 80%
10:00 +16°C° 0 mm 6 mps 739 mmHg 79%
11:00 +17°C° 0 mm 6 mps 739 mmHg 78%
12:00 +17°C° 0 mm 6 mps 740 mmHg 76%
13:00 +19°C° 0 mm 6 mps 740 mmHg 75%
14:00 +19°C° 0 mm 6 mps 740 mmHg 72%
15:00 +19°C° 0 mm 6 mps 740 mmHg 69%
16:00 +20°C° 0 mm 6 mps 740 mmHg 67%
17:00 +19°C° 0 mm 6 mps 741 mmHg 69%
18:00 +17°C° 0 mm 5 mps 741 mmHg 70%
19:00 +16°C° 0 mm 5 mps 741 mmHg 72%
20:00 +16°C° 0 mm 5 mps 741 mmHg 74%
21:00 +15°C° 0 mm 4 mps 742 mmHg 76%
22:00 +15°C° 0 mm 4 mps 742 mmHg 77%
23:00 +15°C° 0 mm 4 mps 742 mmHg 80%
Show more